| time (UTC) | temp F | wind direction | speed MPH | gust MPH | rain 1hr in | rain 24hr in | rain mn in | humidity % | barometer mb |
| 20260906065313 | 73 | 61 | 4.0 | 11.0 | 0.00 | 0.00 | 0.00 | 93 | 1014.6 |
| 20260906064813 | 73 | 55 | 2.0 | 8.0 | 0.00 | 0.00 | 0.00 | 93 | 1014.6 |
| 20260906064314 | 73 | 50 | 3.0 | 8.0 | 0.00 | 0.00 | 0.00 | 93 | 1014.6 |
| 20260906063756 | 73 | 39 | 3.0 | 9.0 | 0.00 | 0.00 | 0.00 | 93 | 1014.6 |
| 20260906063338 | 73 | 46 | 4.0 | 9.0 | 0.00 | 0.00 | 0.00 | 93 | 1014.7 |
| 20260906062757 | 73 | 48 | 3.0 | 8.0 | 0.00 | 0.00 | 0.00 | 93 | 1014.7 |
| 20260906062314 | 73 | 42 | 3.0 | 8.0 | 0.00 | 0.00 | 0.00 | 93 | 1014.7 |
| 20260906061812 | 73 | 42 | 3.0 | 8.0 | 0.00 | 0.00 | 0.00 | 92 | 1014.7 |
| 20260906061313 | 73 | 56 | 3.0 | 8.0 | 0.00 | 0.00 | 0.00 | 92 | 1014.7 |
| 20260906060814 | 74 | 50 | 3.0 | 6.0 | 0.00 | 0.00 | 0.00 | 92 | 1014.6 |
| 20260906060316 | 74 | 49 | 3.0 | 6.0 | 0.00 | 0.00 | 0.00 | 92 | 1014.7 |
| 20260906055802 | 74 | 47 | 3.0 | 8.0 | 0.00 | 0.00 | 0.00 | 92 | 1014.6 |
| 20260906055320 | 74 | 48 | 4.0 | 8.0 | 0.00 | 0.00 | 0.00 | 92 | 1014.6 |
| 20260906054758 | 74 | 48 | 3.0 | 9.0 | 0.00 | 0.00 | 0.00 | 92 | 1014.6 |
| 20260906054318 | 74 | 52 | 5.0 | 9.0 | 0.00 | 0.00 | 0.00 | 92 | 1014.6 |
| 20260906053758 | 74 | 48 | 4.0 | 8.0 | 0.00 | 0.00 | 0.00 | 92 | 1014.6 |
| 20260906053258 | 74 | 40 | 3.0 | 8.0 | 0.00 | 0.00 | 0.00 | 92 | 1014.5 |
| 20260906052806 | 74 | 46 | 3.0 | 9.0 | 0.00 | 0.00 | 0.00 | 92 | 1014.6 |
| 20260906052320 | 74 | 48 | 4.0 | 9.0 | 0.00 | 0.00 | 0.00 | 92 | 1014.6 |
| 20260906051757 | 75 | 35 | 3.0 | 10.0 | 0.00 | 0.00 | 0.00 | 91 | 1014.5 |
| 20260906051317 | 75 | 32 | 5.0 | 10.0 | 0.00 | 0.00 | 0.00 | 91 | 1014.5 |
| 20260906050756 | 75 | 49 | 4.0 | 8.0 | 0.00 | 0.00 | 0.00 | 91 | 1014.4 |
| 20260906050318 | 75 | 49 | 3.0 | 8.0 | 0.00 | 0.00 | 0.00 | 91 | 1014.3 |
| 20260906045819 | 75 | 42 | 2.0 | 5.0 | 0.00 | 0.00 | 0.00 | 91 | 1014.3 |
| 20260906045320 | 75 | 43 | 3.0 | 6.0 | 0.00 | 0.00 | 0.00 | 91 | 1014.2 |
| 20260906044800 | 75 | 42 | 3.0 | 6.0 | 0.00 | 0.00 | 0.00 | 91 | 1014.3 |
| 20260906044300 | 75 | 45 | 2.0 | 6.0 | 0.00 | 0.00 | 0.00 | 91 | 1014.2 |
| 20260906043804 | 75 | 35 | 3.0 | 6.0 | 0.00 | 0.00 | 0.00 | 91 | 1014.2 |
| 20260906043302 | 75 | 48 | 3.0 | 8.0 | 0.00 | 0.00 | 0.00 | 91 | 1014.2 |
| 20260906042810 | 75 | 46 | 3.0 | 6.0 | 0.00 | 0.00 | 0.00 | 90 | 1014.1 |
| 20260906042307 | 75 | 46 | 3.0 | 6.0 | 0.00 | 0.00 | 0.00 | 90 | 1014.1 |
| 20260906041811 | 76 | 45 | 3.0 | 5.0 | 0.00 | 0.00 | 0.00 | 90 | 1014.1 |
| 20260906041346 | 76 | 44 | 2.0 | 5.0 | 0.00 | 0.00 | 0.00 | 90 | 1014.1 |
| 20260906040754 | 76 | 41 | 3.0 | 5.0 | 0.00 | 0.00 | 0.00 | 90 | 1014.0 |
| 20260906040255 | 76 | 37 | 4.0 | 5.0 | 0.00 | 0.00 | 0.00 | 90 | 1014.0 |
| 20260906035814 | 76 | 46 | 1.0 | 9.0 | 0.00 | 0.00 | 0.00 | 90 | 1014.0 |
| 20260906035343 | 76 | 45 | 4.0 | 9.0 | 0.00 | 0.00 | 0.00 | 90 | 1013.9 |
| 20260906034804 | 76 | 43 | 3.0 | 6.0 | 0.00 | 0.00 | 0.00 | 90 | 1013.9 |
| 20260906034322 | 76 | 43 | 2.0 | 6.0 | 0.00 | 0.00 | 0.00 | 90 | 1013.9 |
| 20260906033821 | 76 | 41 | 2.0 | 9.0 | 0.00 | 0.00 | 0.00 | 89 | 1013.8 |
| 20260906033321 | 76 | 31 | 4.0 | 9.0 | 0.00 | 0.00 | 0.00 | 89 | 1013.8 |
| 20260906032806 | 76 | 40 | 2.0 | 9.0 | 0.00 | 0.00 | 0.00 | 89 | 1013.9 |
| 20260906032313 | 76 | 38 | 4.0 | 9.0 | 0.00 | 0.00 | 0.00 | 89 | 1013.8 |
| 20260906031813 | 76 | 44 | 2.0 | 6.0 | 0.00 | 0.00 | 0.00 | 88 | 1013.9 |
| 20260906031314 | 76 | 50 | 2.0 | 6.0 | 0.00 | 0.00 | 0.00 | 88 | 1013.9 |
| 20260906030756 | 77 | 41 | 3.0 | 8.0 | 0.00 | 0.00 | 0.00 | 88 | 1013.8 |
| 20260906030317 | 77 | 44 | 4.0 | 10.0 | 0.00 | 0.00 | 0.00 | 87 | 1013.8 |
| 20260906025819 | 77 | 44 | 2.0 | 6.0 | 0.00 | 0.00 | 0.00 | 86 | 1013.9 |
| 20260906025317 | 77 | 44 | 2.0 | 6.0 | 0.00 | 0.00 | 0.00 | 86 | 1013.9 |
| 20260906024825 | 77 | 43 | 1.0 | 6.0 | 0.00 | 0.00 | 0.00 | 85 | 1013.8 |
| 20260906024307 | 78 | 42 | 2.0 | 9.0 | 0.00 | 0.00 | 0.00 | 84 | 1013.8 |
| 20260906023809 | 78 | 41 | 2.0 | 9.0 | 0.00 | 0.00 | 0.00 | 83 | 1013.8 |
| 20260906023310 | 78 | 40 | 1.0 | 8.0 | 0.00 | 0.00 | 0.00 | 82 | 1013.8 |
| 20260906022810 | 78 | 49 | 3.0 | 10.0 | 0.00 | 0.00 | 0.00 | 82 | 1013.7 |
| 20260906022312 | 79 | 40 | 3.0 | 10.0 | 0.00 | 0.00 | 0.00 | 80 | 1013.7 |
| 20260906021755 | 79 | 52 | 4.0 | 9.0 | 0.00 | 0.00 | 0.00 | 80 | 1013.5 |
| 20260906021319 | 79 | 45 | 2.0 | 9.0 | 0.00 | 0.00 | 0.00 | 78 | 1013.4 |
| 20260906020801 | 79 | 46 | 5.0 | 9.0 | 0.00 | 0.00 | 0.00 | 78 | 1013.5 |
| 20260906020331 | 79 | 50 | 4.0 | 8.0 | 0.00 | 0.00 | 0.00 | 77 | 1013.5 |
| 20260906015811 | 79 | 46 | 0.0 | 5.0 | 0.00 | 0.00 | 0.00 | 77 | 1013.4 |
| 20260906015307 | 80 | 46 | 3.0 | 5.0 | 0.00 | 0.00 | 0.00 | 77 | 1013.3 |
| 20260906014817 | 80 | 46 | 3.0 | 4.0 | 0.00 | 0.00 | 0.00 | 77 | 1013.2 |
| 20260906014257 | 80 | 46 | 2.0 | 5.0 | 0.00 | 0.00 | 0.00 | 77 | 1013.2 |
| 20260906013807 | 80 | 46 | 2.0 | 5.0 | 0.00 | 0.00 | 0.00 | 77 | 1013.1 |
| 20260906013310 | 80 | 48 | 1.0 | 4.0 | 0.00 | 0.00 | 0.00 | 77 | 1013.0 |
| 20260906012813 | 80 | 48 | 1.0 | 4.0 | 0.00 | 0.00 | 0.00 | 77 | 1012.9 |
| 20260906012314 | 81 | 49 | 1.0 | 4.0 | 0.00 | 0.00 | 0.00 | 77 | 1012.7 |
| 20260906011755 | 81 | 49 | 2.0 | 4.0 | 0.00 | 0.00 | 0.00 | 77 | 1012.7 |
| 20260906011316 | 81 | 49 | 0.0 | 3.0 | 0.00 | 0.00 | 0.00 | 77 | 1012.7 |
| 20260906010818 | 81 | 49 | 1.0 | 4.0 | 0.00 | 0.00 | 0.00 | 77 | 1012.7 |
| 20260906010303 | 81 | 49 | 2.0 | 5.0 | 0.00 | 0.00 | 0.00 | 76 | 1012.4 |
| 20260906005812 | 81 | 49 | 2.0 | 6.0 | 0.00 | 0.00 | 0.00 | 76 | 1012.4 |
| 20260906005314 | 82 | 49 | 2.0 | 6.0 | 0.00 | 0.00 | 0.00 | 75 | 1012.5 |
| 20260906004755 | 82 | 50 | 2.0 | 8.0 | 0.00 | 0.00 | 0.00 | 74 | 1012.3 |
| 20260906004255 | 82 | 51 | 4.0 | 8.0 | 0.00 | 0.00 | 0.00 | 73 | 1012.2 |
| 20260906003803 | 83 | 50 | 1.0 | 9.0 | 0.00 | 0.00 | 0.00 | 73 | 1012.1 |
| 20260906003325 | 84 | 47 | 4.0 | 12.0 | 0.00 | 0.00 | 0.00 | 72 | 1012.1 |
| 20260906002814 | 85 | 47 | 2.0 | 9.0 | 0.00 | 0.00 | 0.00 | 71 | 1012.0 |
| 20260906002255 | 85 | 50 | 5.0 | 9.0 | 0.00 | 0.00 | 0.00 | 71 | 1011.9 |
| 20260906001804 | 86 | 4 | 0.0 | 0.0 | 0.00 | 0.00 | 0.00 | 74 | 1011.9 |
| 20260906001306 | 86 | 4 | 0.0 | 0.0 | 0.00 | 0.00 | 0.00 | 73 | 1011.8 |
| 20260906000807 | 86 | 4 | 0.0 | 0.0 | 0.00 | 0.00 | 0.00 | 73 | 1011.8 |
| 20260906000311 | 86 | 4 | 0.0 | 0.0 | 0.00 | 0.00 | 0.00 | 72 | 1011.9 |
| 20260905235812 | 86 | 4 | 0.0 | 0.0 | 0.00 | 0.00 | 0.00 | 71 | 1011.9 |
| 20260905235315 | 86 | 4 | 0.0 | 1.0 | 0.00 | 0.00 | 0.00 | 71 | 1012.0 |
| 20260905234757 | 87 | 4 | 0.0 | 2.0 | 0.00 | 0.00 | 0.00 | 71 | 1012.0 |
| 20260905234320 | 87 | 4 | 0.0 | 2.0 | 0.00 | 0.00 | 0.00 | 70 | 1012.0 |
| 20260905233800 | 87 | 4 | 0.0 | 3.0 | 0.00 | 0.00 | 0.00 | 71 | 1012.1 |
| 20260905233301 | 87 | 4 | 0.0 | 3.0 | 0.00 | 0.00 | 0.00 | 71 | 1012.1 |
| 20260905232810 | 87 | 2 | 1.0 | 3.0 | 0.00 | 0.00 | 0.00 | 70 | 1012.1 |
| 20260905232309 | 88 | 359 | 0.0 | 3.0 | 0.00 | 0.00 | 0.00 | 70 | 1012.1 |
| 20260905231757 | 88 | 358 | 0.0 | 6.0 | 0.00 | 0.00 | 0.00 | 70 | 1012.2 |
| 20260905231300 | 88 | 348 | 1.0 | 6.0 | 0.00 | 0.00 | 0.00 | 69 | 1012.2 |
| 20260905230806 | 88 | 321 | 0.0 | 4.0 | 0.00 | 0.00 | 0.00 | 69 | 1012.0 |
| 20260905230328 | 89 | 335 | 1.0 | 4.0 | 0.00 | 0.00 | 0.00 | 68 | 1012.1 |
| 20260905225809 | 89 | 48 | 0.0 | 4.0 | 0.00 | 0.00 | 0.00 | 68 | 1012.1 |
| 20260905225315 | 89 | 51 | 0.0 | 4.0 | 0.00 | 0.00 | 0.00 | 67 | 1012.0 |
| 20260905224756 | 89 | 52 | 0.0 | 4.0 | 0.00 | 0.00 | 0.00 | 67 | 1011.8 |
| 20260905224317 | 89 | 52 | 1.0 | 4.0 | 0.00 | 0.00 | 0.00 | 67 | 1012.0 |
| 20260905223756 | 89 | 52 | 1.0 | 4.0 | 0.00 | 0.00 | 0.00 | 67 | 1011.7 |
| 20260905223322 | 88 | 57 | 2.0 | 4.0 | 0.00 | 0.00 | 0.00 | 68 | 1011.7 |
| 20260905222833 | 88 | 302 | 1.0 | 5.0 | 0.00 | 0.00 | 0.00 | 67 | 1011.5 |
| 20260905222307 | 89 | 302 | 2.0 | 5.0 | 0.00 | 0.00 | 0.00 | 66 | 1011.6 |
| 20260905221816 | 89 | 196 | 1.0 | 2.0 | 0.00 | 0.00 | 0.00 | 66 | 1011.8 |
| 20260905221318 | 89 | 237 | 0.0 | 0.0 | 0.00 | 0.00 | 0.00 | 66 | 1011.9 |
| 20260905220757 | 89 | 237 | 0.0 | 0.0 | 0.00 | 0.00 | 0.00 | 66 | 1011.7 |
| 20260905220301 | 89 | 237 | 0.0 | 0.0 | 0.00 | 0.00 | 0.00 | 65 | 1011.4 |
| 20260905215815 | 89 | 237 | 0.0 | 0.0 | 0.00 | 0.00 | 0.00 | 65 | 1011.3 |
| 20260905215314 | 89 | 237 | 0.0 | 0.0 | 0.00 | 0.00 | 0.00 | 65 | 1011.4 |
| 20260905214814 | 89 | 237 | 0.0 | 0.0 | 0.00 | 0.00 | 0.00 | 65 | 1011.6 |
| 20260905214319 | 89 | 237 | 0.0 | 0.0 | 0.00 | 0.00 | 0.00 | 65 | 1011.6 |
| 20260905213819 | 89 | 237 | 0.0 | 0.0 | 0.00 | 0.00 | 0.00 | 65 | 1011.7 |
| 20260905213324 | 89 | 237 | 0.0 | 0.0 | 0.00 | 0.00 | 0.00 | 64 | 1011.8 |
| 20260905212756 | 89 | 237 | 0.0 | 0.0 | 0.00 | 0.00 | 0.00 | 64 | 1011.6 |
| 20260905212256 | 89 | 237 | 0.0 | 0.0 | 0.00 | 0.00 | 0.00 | 65 | 1011.9 |
| 20260905211802 | 89 | 237 | 0.0 | 0.0 | 0.00 | 0.00 | 0.00 | 65 | 1011.7 |
| 20260905211323 | 89 | 237 | 0.0 | 0.0 | 0.00 | 0.00 | 0.00 | 66 | 1011.6 |
| 20260905210827 | 90 | 237 | 0.0 | 0.0 | 0.00 | 0.00 | 0.00 | 63 | 1012.0 |
| 20260905210317 | 90 | 237 | 0.0 | 2.0 | 0.00 | 0.00 | 0.00 | 63 | 1012.0 |
| 20260905205817 | 90 | 237 | 0.0 | 4.0 | 0.00 | 0.00 | 0.00 | 62 | 1012.0 |
| 20260905205256 | 90 | 237 | 0.0 | 7.0 | 0.00 | 0.00 | 0.00 | 61 | 1012.1 |
| 20260905204802 | 91 | 238 | 3.0 | 7.0 | 0.00 | 0.00 | 0.00 | 60 | 1012.1 |
| 20260905204302 | 91 | 58 | 1.0 | 5.0 | 0.00 | 0.00 | 0.00 | 62 | 1012.0 |
| 20260905203821 | 91 | 163 | 0.0 | 4.0 | 0.00 | 0.00 | 0.00 | 61 | 1012.2 |
| 20260905203314 | 92 | 52 | 1.0 | 5.0 | 0.00 | 0.00 | 0.00 | 60 | 1012.2 |
| 20260905202814 | 92 | 35 | 2.0 | 5.0 | 0.00 | 0.00 | 0.00 | 59 | 1012.3 |
| 20260905202317 | 92 | 246 | 2.0 | 5.0 | 0.00 | 0.00 | 0.00 | 59 | 1012.4 |
| 20260905201818 | 92 | 40 | 0.0 | 0.0 | 0.00 | 0.00 | 0.00 | 61 | 1012.3 |
| 20260905201340 | 91 | 40 | 0.0 | 0.0 | 0.00 | 0.00 | 0.00 | 61 | 1012.4 |
| 20260905200759 | 91 | 38 | 0.0 | 4.0 | 0.00 | 0.00 | 0.00 | 60 | 1012.4 |
| 20260905200301 | 91 | 38 | 1.0 | 5.0 | 0.00 | 0.00 | 0.00 | 58 | 1012.3 |
| 20260905195812 | 92 | 37 | 2.0 | 6.0 | 0.00 | 0.00 | 0.00 | 58 | 1012.4 |
| 20260905195315 | 92 | 232 | 1.0 | 10.0 | 0.00 | 0.00 | 0.00 | 59 | 1012.5 |
| 20260905194814 | 91 | 202 | 3.0 | 10.0 | 0.00 | 0.00 | 0.00 | 59 | 1012.6 |
| 20260905194332 | 92 | 217 | 2.0 | 5.0 | 0.00 | 0.00 | 0.00 | 57 | 1012.6 |
| 20260905193906 | 92 | 45 | 0.0 | 5.0 | 0.00 | 0.00 | 0.00 | 61 | 1012.6 |
| 20260905193401 | 91 | 52 | 3.0 | 5.0 | 0.00 | 0.00 | 0.00 | 58 | 1012.6 |
| 20260905192758 | 92 | 224 | 2.0 | 5.0 | 0.00 | 0.00 | 0.00 | 57 | 1012.7 |
| 20260905192306 | 92 | 230 | 2.0 | 9.0 | 0.00 | 0.00 | 0.00 | 58 | 1012.8 |
| 20260905191804 | 91 | 197 | 3.0 | 7.0 | 0.00 | 0.00 | 0.00 | 60 | 1012.9 |
| 20260905191259 | 92 | 214 | 1.0 | 6.0 | 0.00 | 0.00 | 0.00 | 57 | 1013.0 |
| 20260905190804 | 91 | 216 | 2.0 | 6.0 | 0.00 | 0.00 | 0.00 | 59 | 1013.0 |
| 20260905190303 | 91 | 55 | 0.0 | 8.0 | 0.00 | 0.00 | 0.00 | 58 | 1013.1 |
| 20260905185800 | 91 | 60 | 2.0 | 8.0 | 0.00 | 0.00 | 0.00 | 61 | 1013.2 |
| 20260905185256 | 91 | 232 | 1.0 | 5.0 | 0.00 | 0.00 | 0.00 | 60 | 1013.2 |
| 20260905184801 | 91 | 223 | 1.0 | 8.0 | 0.00 | 0.00 | 0.00 | 58 | 1013.3 |
| 20260905184321 | 91 | 227 | 4.0 | 9.0 | 0.00 | 0.00 | 0.00 | 60 | 1013.3 |
| 20260905183802 | 90 | 196 | 2.0 | 9.0 | 0.00 | 0.00 | 0.00 | 59 | 1013.4 |
| 20260905183322 | 90 | 208 | 5.0 | 8.0 | 0.00 | 0.00 | 0.00 | 61 | 1013.4 |
| 20260905182801 | 90 | 217 | 3.0 | 8.0 | 0.00 | 0.00 | 0.00 | 58 | 1013.4 |
| 20260905182341 | 90 | 200 | 2.0 | 9.0 | 0.00 | 0.00 | 0.00 | 61 | 1013.4 |
| 20260905181820 | 89 | 205 | 2.0 | 9.0 | 0.00 | 0.00 | 0.00 | 60 | 1013.7 |
| 20260905181301 | 89 | 91 | 3.0 | 8.0 | 0.00 | 0.00 | 0.00 | 61 | 1013.7 |
| 20260905180811 | 88 | 194 | 4.0 | 8.0 | 0.00 | 0.00 | 0.00 | 60 | 1013.7 |
| 20260905180312 | 89 | 199 | 1.0 | 7.0 | 0.00 | 0.00 | 0.00 | 58 | 1013.7 |
| 20260905175829 | 88 | 197 | 4.0 | 7.0 | 0.00 | 0.00 | 0.00 | 62 | 1013.8 |
| 20260905175309 | 88 | 198 | 3.0 | 7.0 | 0.00 | 0.00 | 0.00 | 61 | 1013.7 |
| 20260905174816 | 88 | 201 | 3.0 | 8.0 | 0.00 | 0.00 | 0.00 | 62 | 1013.8 |
| 20260905174315 | 87 | 191 | 2.0 | 8.0 | 0.00 | 0.00 | 0.00 | 62 | 1013.9 |
| 20260905173818 | 87 | 192 | 5.0 | 8.0 | 0.00 | 0.00 | 0.00 | 62 | 1013.9 |
| 20260905173318 | 86 | 187 | 2.0 | 8.0 | 0.00 | 0.00 | 0.00 | 63 | 1014.0 |
| 20260905172757 | 87 | 202 | 5.0 | 10.0 | 0.00 | 0.00 | 0.00 | 62 | 1014.1 |
| 20260905172318 | 86 | 187 | 4.0 | 10.0 | 0.00 | 0.00 | 0.00 | 62 | 1014.1 |
| 20260905171755 | 86 | 200 | 6.0 | 10.0 | 0.00 | 0.00 | 0.00 | 62 | 1014.2 |
| 20260905171339 | 86 | 192 | 5.0 | 10.0 | 0.00 | 0.00 | 0.00 | 61 | 1014.2 |
| 20260905170758 | 86 | 198 | 6.0 | 9.0 | 0.00 | 0.00 | 0.00 | 62 | 1014.3 |
| 20260905170310 | 86 | 202 | 5.0 | 9.0 | 0.00 | 0.00 | 0.00 | 61 | 1014.4 |
| 20260905165759 | 86 | 194 | 4.0 | 10.0 | 0.00 | 0.00 | 0.00 | 62 | 1014.5 |
| 20260905165311 | 86 | 202 | 4.0 | 10.0 | 0.00 | 0.00 | 0.00 | 62 | 1014.6 |
| 20260905164805 | 85 | 195 | 3.0 | 9.0 | 0.00 | 0.00 | 0.00 | 63 | 1014.6 |
| 20260905164306 | 84 | 189 | 6.0 | 9.0 | 0.00 | 0.00 | 0.00 | 63 | 1014.7 |
| 20260905163809 | 85 | 185 | 2.0 | 9.0 | 0.00 | 0.00 | 0.00 | 62 | 1014.8 |
| 20260905163258 | 85 | 192 | 4.0 | 8.0 | 0.00 | 0.00 | 0.00 | 62 | 1014.7 |
| 20260905162806 | 85 | 201 | 2.0 | 7.0 | 0.00 | 0.00 | 0.00 | 65 | 1014.8 |
| 20260905162314 | 84 | 200 | 1.0 | 7.0 | 0.00 | 0.00 | 0.00 | 63 | 1014.8 |
| 20260905161755 | 84 | 199 | 3.0 | 9.0 | 0.00 | 0.00 | 0.00 | 65 | 1014.9 |
| 20260905161316 | 83 | 202 | 4.0 | 9.0 | 0.00 | 0.00 | 0.00 | 65 | 1014.9 |
| 20260905160756 | 83 | 175 | 5.0 | 9.0 | 0.00 | 0.00 | 0.00 | 66 | 1014.9 |
| 20260905160338 | 82 | 193 | 3.0 | 9.0 | 0.00 | 0.00 | 0.00 | 65 | 1014.8 |
| 20260905155758 | 82 | 189 | 4.0 | 11.0 | 0.00 | 0.00 | 0.00 | 65 | 1014.8 |
| 20260905155317 | 82 | 196 | 4.0 | 11.0 | 0.00 | 0.00 | 0.00 | 66 | 1014.7 |
| 20260905154817 | 82 | 188 | 4.0 | 11.0 | 0.00 | 0.00 | 0.00 | 67 | 1014.7 |
| 20260905154318 | 81 | 194 | 4.0 | 8.0 | 0.00 | 0.00 | 0.00 | 67 | 1014.8 |
| 20260905153758 | 81 | 186 | 0.0 | 11.0 | 0.00 | 0.00 | 0.00 | 68 | 1014.9 |
| 20260905153301 | 81 | 194 | 4.0 | 11.0 | 0.00 | 0.00 | 0.00 | 68 | 1014.9 |
| 20260905152830 | 81 | 193 | 5.0 | 9.0 | 0.00 | 0.00 | 0.00 | 69 | 1014.9 |
| 20260905152258 | 80 | 190 | 5.0 | 10.0 | 0.00 | 0.00 | 0.00 | 68 | 1015.0 |
| 20260905151806 | 80 | 189 | 6.0 | 11.0 | 0.00 | 0.00 | 0.00 | 68 | 1015.0 |
| 20260905151313 | 80 | 199 | 5.0 | 9.0 | 0.00 | 0.00 | 0.00 | 70 | 1015.0 |
| 20260905150814 | 80 | 192 | 2.0 | 10.0 | 0.00 | 0.00 | 0.00 | 70 | 1015.1 |
| 20260905150317 | 79 | 208 | 3.0 | 13.0 | 0.00 | 0.00 | 0.00 | 70 | 1015.1 |
| 20260905145819 | 79 | 194 | 6.0 | 13.0 | 0.00 | 0.00 | 0.00 | 70 | 1015.1 |
| 20260905145334 | 79 | 192 | 3.0 | 9.0 | 0.00 | 0.00 | 0.00 | 71 | 1015.1 |
| 20260905144802 | 79 | 194 | 4.0 | 10.0 | 0.00 | 0.00 | 0.00 | 71 | 1015.1 |
| 20260905144302 | 78 | 189 | 3.0 | 10.0 | 0.00 | 0.00 | 0.00 | 71 | 1015.1 |
| 20260905143810 | 78 | 186 | 3.0 | 9.0 | 0.00 | 0.00 | 0.00 | 72 | 1015.2 |
| 20260905143310 | 78 | 188 | 2.0 | 10.0 | 0.00 | 0.00 | 0.00 | 72 | 1015.3 |
| 20260905142813 | 78 | 185 | 3.0 | 10.0 | 0.00 | 0.00 | 0.00 | 72 | 1015.3 |
| 20260905142315 | 78 | 180 | 0.0 | 11.0 | 0.00 | 0.00 | 0.00 | 74 | 1015.3 |
| 20260905141816 | 77 | 193 | 2.0 | 9.0 | 0.00 | 0.00 | 0.00 | 74 | 1015.4 |
| 20260905141258 | 77 | 191 | 3.0 | 10.0 | 0.00 | 0.00 | 0.00 | 74 | 1015.4 |
| 20260905140804 | 77 | 181 | 2.0 | 11.0 | 0.00 | 0.00 | 0.00 | 75 | 1015.3 |
| 20260905140312 | 76 | 191 | 2.0 | 11.0 | 0.00 | 0.00 | 0.00 | 76 | 1015.3 |
| 20260905135813 | 76 | 162 | 2.0 | 9.0 | 0.00 | 0.00 | 0.00 | 76 | 1015.4 |
| 20260905135255 | 76 | 169 | 2.0 | 10.0 | 0.00 | 0.00 | 0.00 | 77 | 1015.4 |
| 20260905134805 | 76 | 188 | 2.0 | 7.0 | 0.00 | 0.00 | 0.00 | 77 | 1015.4 |
| 20260905134305 | 75 | 194 | 3.0 | 13.0 | 0.00 | 0.00 | 0.00 | 78 | 1015.5 |
| 20260905133808 | 75 | 183 | 4.0 | 13.0 | 0.00 | 0.00 | 0.00 | 78 | 1015.4 |
| 20260905133308 | 75 | 181 | 3.0 | 10.0 | 0.00 | 0.00 | 0.00 | 79 | 1015.3 |
| 20260905132817 | 75 | 189 | 3.0 | 8.0 | 0.00 | 0.00 | 0.00 | 79 | 1015.3 |
| 20260905132321 | 74 | 185 | 1.0 | 8.0 | 0.00 | 0.00 | 0.00 | 79 | 1015.3 |
| 20260905131802 | 74 | 193 | 2.0 | 8.0 | 0.00 | 0.00 | 0.00 | 81 | 1015.5 |
| 20260905131307 | 74 | 194 | 1.0 | 8.0 | 0.00 | 0.00 | 0.00 | 81 | 1015.6 |
| 20260905130810 | 74 | 189 | 0.0 | 3.0 | 0.00 | 0.00 | 0.00 | 82 | 1015.6 |
| 20260905130313 | 73 | 187 | 0.0 | 7.0 | 0.00 | 0.00 | 0.00 | 83 | 1015.5 |
| 20260905125755 | 73 | 187 | 1.0 | 7.0 | 0.00 | 0.00 | 0.00 | 84 | 1015.6 |
| 20260905125317 | 73 | 185 | 1.0 | 7.0 | 0.00 | 0.00 | 0.00 | 83 | 1015.5 |
| 20260905124800 | 72 | 177 | 0.0 | 2.0 | 0.00 | 0.00 | 0.00 | 84 | 1015.5 |
| 20260905124323 | 72 | 177 | 0.0 | 1.0 | 0.00 | 0.00 | 0.00 | 85 | 1015.6 |
| 20260905123807 | 72 | 177 | 0.0 | 1.0 | 0.00 | 0.00 | 0.00 | 85 | 1015.5 |
| 20260905123329 | 72 | 177 | 0.0 | 1.0 | 0.00 | 0.00 | 0.00 | 85 | 1015.6 |
| 20260905122755 | 72 | 177 | 0.0 | 0.0 | 0.00 | 0.00 | 0.00 | 85 | 1015.6 |
| 20260905122316 | 72 | 177 | 0.0 | 4.0 | 0.00 | 0.00 | 0.00 | 85 | 1015.6 |
| 20260905121758 | 72 | 177 | 1.0 | 4.0 | 0.00 | 0.00 | 0.00 | 85 | 1015.7 |
| 20260905121321 | 72 | 177 | 1.0 | 3.0 | 0.00 | 0.00 | 0.00 | 85 | 1015.6 |
| 20260905120823 | 72 | 77 | 0.0 | 1.0 | 0.00 | 0.00 | 0.00 | 86 | 1015.7 |
| 20260905120343 | 72 | 77 | 0.0 | 3.0 | 0.00 | 0.00 | 0.00 | 85 | 1015.8 |
| 20260905115803 | 72 | 79 | 0.0 | 6.0 | 0.00 | 0.00 | 0.00 | 85 | 1015.6 |
| 20260905115312 | 72 | 212 | 1.0 | 5.0 | 0.00 | 0.00 | 0.00 | 85 | 1015.4 |
| 20260905114814 | 72 | 214 | 0.0 | 3.0 | 0.00 | 0.00 | 0.00 | 85 | 1015.3 |
| 20260905114255 | 72 | 214 | 1.0 | 6.0 | 0.00 | 0.00 | 0.00 | 84 | 1015.3 |
| 20260905113804 | 72 | 43 | 1.0 | 6.0 | 0.00 | 0.00 | 0.00 | 84 | 1015.2 |
| 20260905113303 | 73 | 37 | 1.0 | 3.0 | 0.00 | 0.00 | 0.00 | 84 | 1015.2 |
| 20260905112838 | 73 | 44 | 1.0 | 6.0 | 0.00 | 0.00 | 0.00 | 84 | 1015.1 |
| 20260905112258 | 73 | 68 | 1.0 | 6.0 | 0.00 | 0.00 | 0.00 | 85 | 1014.9 |
| 20260905111804 | 73 | 46 | 2.0 | 10.0 | 0.00 | 0.00 | 0.00 | 85 | 1015.1 |
| 20260905111303 | 74 | 35 | 2.0 | 10.0 | 0.00 | 0.00 | 0.00 | 88 | 1015.2 |
| 20260905110831 | 75 | 62 | 2.0 | 11.0 | 0.00 | 0.00 | 0.00 | 92 | 1015.1 |
| 20260905110317 | 75 | 17 | 3.0 | 11.0 | 0.00 | 0.00 | 0.00 | 93 | 1014.9 |
| 20260905105805 | 76 | 63 | 2.0 | 9.0 | 0.00 | 0.00 | 0.00 | 94 | 1014.6 |
| 20260905105306 | 75 | 44 | 0.0 | 0.0 | 0.00 | 0.00 | 0.00 | 94 | 1013.9 |
| 20260905104836 | 75 | 44 | 0.0 | 0.0 | 0.00 | 0.00 | 0.00 | 94 | 1013.8 |
| 20260905104317 | 75 | 44 | 0.0 | 0.0 | 0.00 | 0.00 | 0.00 | 94 | 1013.8 |
| 20260905103834 | 75 | 44 | 0.0 | 0.0 | 0.00 | 0.00 | 0.00 | 94 | 1013.8 |
| 20260905103255 | 75 | 44 | 0.0 | 0.0 | 0.00 | 0.00 | 0.00 | 94 | 1013.8 |
| 20260905102805 | 75 | 44 | 0.0 | 0.0 | 0.00 | 0.00 | 0.00 | 93 | 1013.9 |
| 20260905102308 | 75 | 44 | 0.0 | 0.0 | 0.00 | 0.00 | 0.00 | 93 | 1013.9 |
| 20260905101811 | 75 | 44 | 0.0 | 0.0 | 0.00 | 0.00 | 0.00 | 93 | 1013.8 |
| 20260905101312 | 75 | 44 | 0.0 | 0.0 | 0.00 | 0.00 | 0.00 | 93 | 1013.8 |
| 20260905100807 | 75 | 44 | 0.0 | 0.0 | 0.00 | 0.00 | 0.00 | 93 | 1013.8 |
| 20260905100308 | 76 | 44 | 0.0 | 0.0 | 0.00 | 0.00 | 0.00 | 93 | 1013.7 |
| 20260905095835 | 76 | 44 | 0.0 | 0.0 | 0.00 | 0.00 | 0.00 | 93 | 1013.7 |
| 20260905095256 | 76 | 44 | 0.0 | 0.0 | 0.00 | 0.00 | 0.00 | 93 | 1013.6 |
| 20260905094826 | 76 | 44 | 0.0 | 0.0 | 0.00 | 0.00 | 0.00 | 93 | 1013.6 |
| 20260905094309 | 76 | 44 | 0.0 | 0.0 | 0.00 | 0.00 | 0.00 | 92 | 1013.6 |
| 20260905093808 | 76 | 44 | 0.0 | 0.0 | 0.00 | 0.00 | 0.00 | 92 | 1013.6 |
| 20260905093308 | 76 | 44 | 0.0 | 0.0 | 0.00 | 0.00 | 0.00 | 93 | 1013.6 |
| 20260905092756 | 76 | 44 | 0.0 | 0.0 | 0.00 | 0.00 | 0.00 | 93 | 1013.6 |
| 20260905092317 | 76 | 44 | 0.0 | 0.0 | 0.00 | 0.00 | 0.00 | 93 | 1013.6 |
| 20260905091817 | 76 | 44 | 0.0 | 0.0 | 0.00 | 0.00 | 0.00 | 93 | 1013.6 |
| 20260905091259 | 76 | 44 | 0.0 | 0.0 | 0.00 | 0.00 | 0.00 | 92 | 1013.6 |
| 20260905090806 | 76 | 44 | 0.0 | 0.0 | 0.00 | 0.00 | 0.00 | 93 | 1013.8 |
| 20260905090307 | 76 | 44 | 0.0 | 0.0 | 0.00 | 0.00 | 0.00 | 92 | 1013.8 |
| 20260905085807 | 76 | 44 | 0.0 | 0.0 | 0.00 | 0.00 | 0.00 | 92 | 1013.7 |
| 20260905085314 | 76 | 44 | 0.0 | 0.0 | 0.00 | 0.00 | 0.00 | 92 | 1013.8 |
| 20260905084813 | 77 | 44 | 0.0 | 0.0 | 0.00 | 0.00 | 0.00 | 91 | 1013.7 |
| 20260905084315 | 77 | 44 | 0.0 | 0.0 | 0.00 | 0.00 | 0.00 | 91 | 1013.5 |
| 20260905083756 | 77 | 44 | 0.0 | 0.0 | 0.00 | 0.00 | 0.00 | 92 | 1013.4 |
| 20260905083318 | 77 | 44 | 0.0 | 0.0 | 0.00 | 0.00 | 0.00 | 92 | 1013.4 |
| 20260905082818 | 77 | 44 | 0.0 | 0.0 | 0.00 | 0.00 | 0.00 | 92 | 1013.3 |
| 20260905082318 | 77 | 44 | 0.0 | 0.0 | 0.00 | 0.00 | 0.00 | 92 | 1013.2 |
| 20260905081758 | 77 | 44 | 0.0 | 0.0 | 0.00 | 0.00 | 0.00 | 92 | 1013.1 |
| 20260905081320 | 77 | 44 | 0.0 | 0.0 | 0.00 | 0.00 | 0.00 | 92 | 1013.0 |
| 20260905080801 | 77 | 44 | 0.0 | 0.0 | 0.00 | 0.00 | 0.00 | 91 | 1013.1 |
| 20260905080309 | 77 | 44 | 0.0 | 0.0 | 0.00 | 0.00 | 0.00 | 91 | 1013.1 |
| 20260905075810 | 77 | 44 | 0.0 | 0.0 | 0.00 | 0.00 | 0.00 | 91 | 1013.0 |
| 20260905075336 | 77 | 44 | 0.0 | 0.0 | 0.00 | 0.00 | 0.00 | 92 | 1013.0 |
| 20260905074815 | 78 | 44 | 0.0 | 0.0 | 0.00 | 0.00 | 0.00 | 91 | 1013.0 |
| 20260905074316 | 77 | 44 | 0.0 | 0.0 | 0.00 | 0.00 | 0.00 | 91 | 1012.9 |
| 20260905073832 | 78 | 44 | 0.0 | 0.0 | 0.00 | 0.00 | 0.00 | 91 | 1012.8 |
| 20260905073315 | 78 | 44 | 0.0 | 0.0 | 0.00 | 0.00 | 0.00 | 91 | 1012.7 |
| 20260905072815 | 78 | 44 | 0.0 | 0.0 | 0.00 | 0.00 | 0.00 | 91 | 1012.8 |
| 20260905072316 | 78 | 44 | 0.0 | 0.0 | 0.00 | 0.00 | 0.00 | 91 | 1012.9 |
| 20260905071756 | 78 | 44 | 0.0 | 0.0 | 0.00 | 0.00 | 0.00 | 91 | 1012.9 |
| 20260905071317 | 78 | 44 | 0.0 | 0.0 | 0.00 | 0.00 | 0.00 | 92 | 1013.0 |
| 20260905070755 | 78 | 44 | 0.0 | 0.0 | 0.00 | 0.00 | 0.00 | 92 | 1013.1 |
| 20260905070318 | 78 | 44 | 0.0 | 0.0 | 0.00 | 0.00 | 0.00 | 92 | 1013.1 |
| 20260905065756 | 78 | 44 | 0.0 | 0.0 | 0.00 | 0.00 | 0.00 | 93 | 1013.1 |